TimeCST,TemperatureF,Dew PointF,Humidity,Sea Level PressureIn,VisibilityMPH,Wind Direction,Wind SpeedMPH,Gust SpeedMPH,PrecipitationIn,Events,Conditions,WindDirDegrees,DateUTC
12:00 AM,-47,-51,64,29.97,15,Calm,Calm,,,Snow,Snow,,2013-02-01 06:00:00
12:00 AM,-47.2,-50.8,81,29.97,15.0,Calm,Calm,-,N/A,,Clear,0,2013-02-01 06:00:00
1:00 AM,-47.2,-50.8,81,29.97,15.0,Calm,Calm,-,N/A,,Clear,0,2013-02-01 07:00:00
2:00 AM,-47.2,-50.8,81,29.97,15.0,Calm,Calm,-,N/A,,Clear,0,2013-02-01 08:00:00
3:00 AM,-47.2,-50.8,81,29.97,15.0,Calm,Calm,-,N/A,,Clear,0,2013-02-01 09:00:00
4:00 AM,-47.2,-50.8,81,29.96,15.0,Calm,Calm,-,N/A,,Clear,0,2013-02-01 10:00:00
5:00 AM,-47.2,-50.8,81,29.96,15.0,East,2.3,-,N/A,,Clear,80,2013-02-01 11:00:00
6:00 AM,-46,-50,63,29.94,15,Calm,Calm,,,Snow,Snow,,2013-02-01 12:00:00
6:00 AM,-47.2,-50.8,81,29.94,15.0,Calm,Calm,-,N/A,,Clear,0,2013-02-01 12:00:00
7:00 AM,-45.4,-50.8,74,29.93,15.0,Calm,Calm,-,N/A,,Clear,0,2013-02-01 13:00:00
8:00 AM,-47.2,-50.8,81,29.91,15.0,Calm,Calm,-,N/A,,Clear,0,2013-02-01 14:00:00
9:00 AM,-47.2,-50.8,81,29.90,15.0,Calm,Calm,-,N/A,,Clear,0,2013-02-01 15:00:00
10:00 AM,-47.2,-50.8,81,29.89,15.0,Calm,Calm,-,N/A,,Clear,0,2013-02-01 16:00:00
11:00 AM,-47.2,-50.8,81,29.87,15.0,Calm,Calm,-,N/A,,Clear,0,2013-02-01 17:00:00
12:00 PM,-48,-52,65,29.85,15,Calm,Calm,,,Snow,Snow,,2013-02-01 18:00:00
12:00 PM,-49.0,-52.6,81,29.85,15.0,Calm,Calm,-,N/A,,Clear,0,2013-02-01 18:00:00
1:00 PM,-47.2,-50.8,81,29.83,15.0,Calm,Calm,-,N/A,,Clear,0,2013-02-01 19:00:00
2:00 PM,-47.2,-50.8,81,29.82,15.0,Calm,Calm,-,N/A,,Clear,0,2013-02-01 20:00:00
3:00 PM,-47.2,-50.8,81,29.80,15.0,Calm,Calm,-,N/A,,Clear,0,2013-02-01 21:00:00
4:00 PM,-47.2,-50.8,81,29.77,15.0,Calm,Calm,-,N/A,,Clear,0,2013-02-01 22:00:00
5:00 PM,-47.2,-52.6,73,29.75,15.0,Calm,Calm,-,N/A,,Clear,0,2013-02-01 23:00:00
6:00 PM,-48,-51,70,29.73,15,Calm,Calm,,,Snow,Snow,,2013-02-02 00:00:00
6:00 PM,-47.2,-50.8,81,29.73,15.0,Calm,Calm,-,N/A,,Clear,0,2013-02-02 00:00:00
7:00 PM,-45.4,-50.8,74,29.70,15.0,Calm,Calm,-,N/A,,Clear,0,2013-02-02 01:00:00
8:00 PM,-45.4,-49.0,82,29.68,15.0,SSE,2.3,-,N/A,,Clear,150,2013-02-02 02:00:00
9:00 PM,-47.2,-50.8,81,29.65,15.0,Calm,Calm,-,N/A,,Clear,0,2013-02-02 03:00:00